Powrót do katalogu

STARLINK-34987

AktywnyŁącznośćSSO
NORAD 65255·PAYLOAD·🇺🇸 United States

Wystrzelony Aug 18, 2025 z Vandenberg Space Force Base

Loading…

Następne Przeloty (najbliższe 24 godziny)

TLE

ŚwieżeSource: CelesTrak SupGP

Epoka: Sep 15, 2026, 02:33 UTC

1 65255C 25179W   26258.10673611  .00023596  00000+0  73236-3 0  2581
2 65255  97.2833 297.4985 0000929  86.7570 351.2695 15.33432271    17

Śledź STARLINK-34987 w czasie rzeczywistym z AllMySat

Download on the App Store